Location: �quirre
(50.4736°N, 2.2351°E)
Time: 17:49:23
(UTC+00:00)

Cosmos 1908 Rocket - Pass Details

Date: 07 August 2020
Orbit: 606 x 632 km, 82.5° (Epoch: 25 September)

Event Time Altitude Azimuth Distance (km) Brightness Sun altitude
Exits shadow 00:21:05 60° 255° (WSW) 714 3.7 -23.0°
Maximum altitude 00:21:28 63° 283° (WNW) 696 3.7 -23.0°
Drops below altitude 10° 00:25:50 10° 5° (N) 1,988 7.3 -22.9°
Sets 00:28:05 0° 8° (N) 2,894 8.5 -22.8°
